Flag for U.S.A. Weather past 2 weeks in Palo Alto, California, U.S.A.

43 °F

Passing clouds.

Feels Like: 43 °F
Forecast: 40 / 54 °F
Wind: No wind

Location: Moffett Field

Current Time: Nov 25, 2015 at 4:24:09 AM

Latest Report: Nov 25, 2015 at 3:56 AM

Visibility: 10 mi

Pressure: 29.93 "Hg

Humidity: 89%

Dew point: 40 °F

Location of Palo AltoLocation

Historic Weather in Palo Alto — Graph


Palo Alto temperature yesterday

Maximum temperature yesterday: 58 °F (at 9:56 AM)
Minimum temperature yesterday: 48 °F (at 10:56 PM)
Average temperature yesterday: 52 °F

Past Weeks' High & Low Weather Summary

High71 °F (Nov 20, 1:56 PM)100% (Nov 15, 8:03 AM)30.43 "Hg (Nov 15, 8:03 AM)
Low41 °F (Nov 11, 6:56 AM)28% (Nov 16, 2:56 PM)29.79 "Hg (Nov 15, 3:56 AM)
Average54 °F72%30.11 "Hg
* Reported Nov 10 2:56 AM — Nov 25 2:56 AM, Palo Alto, Weather by CustomWeather, © 2015

Note: Actual official high and low records may vary slightly from our data, if they occured in-between our weather recording intervals... More about our weather records


Palo Alto weather history for previous 24 hours

Time TempWeatherWind HumidityBarometerVisibility
2:56 AM
Wed, Nov 25
45 °FLight rain. Mostly cloudy.6 mph90%29.93 "Hg10 mi
1:56 AM45 °FPassing clouds.5 mph93%29.91 "Hg10 mi
12:56 AM46 °FHeavy rain. Fog.5 mph86%29.91 "Hg4 mi
11:56 PM
Tue, Nov 24
48 °FLight rain. Mostly cloudy.3 mph80%29.92 "Hg10 mi
10:56 PM48 °FPassing clouds.3 mph77%29.93 "Hg10 mi
9:56 PM49 °FPassing clouds.No wind74%29.94 "Hg10 mi
8:56 PM50 °FPassing clouds.No wind71%29.93 "Hg10 mi
7:56 PM51 °FLight rain. Overcast.3 mph66%29.94 "Hg10 mi
6:56 PM50 °FPassing clouds.No wind66%29.94 "Hg10 mi
5:56 PM52 °FPassing clouds.5 mph59%29.95 "Hg10 mi
4:56 PM53 °FPassing clouds.8 mph56%29.94 "Hg10 mi
3:56 PM54 °FPartly sunny.16 mph57%29.94 "Hg10 mi
2:56 PM56 °FSunny.13 mph51%29.93 "Hg10 mi
1:56 PM56 °FSunny.14 mph51%29.93 "Hg10 mi
12:56 PM55 °FScattered clouds.14 mph67%29.92 "Hg10 mi
11:56 AM53 °FLight rain. Mostly cloudy.9 mph77%29.93 "Hg10 mi
10:56 AM56 °FRain. Mostly cloudy.3 mph84%29.91 "Hg2 mi
9:56 AM58 °FLight rain. Overcast.8 mph72%29.91 "Hg10 mi
8:56 AM55 °FOvercast.10 mph77%29.92 "Hg10 mi
7:56 AM53 °FMostly cloudy.10 mph80%29.92 "Hg10 mi
6:56 AM51 °FOvercast.3 mph80%29.93 "Hg10 mi
5:56 AM50 °FMostly cloudy.8 mph83%29.93 "Hg10 mi
4:56 AM51 °FOvercast.7 mph77%29.93 "Hg10 mi
Weather by CustomWeather, © 2015

See weather overviewHow to use our weather pages